DELTA 1 DEB, 12538

Orbit data source: Space-Track

DELTA 1 DEB, 12538 is space debris in SSO originally from a launch on Thu, 29 Jul 1976 UTC launched from the Air Force Western Test Range (AFWTR). Debris objects in space refer to the collection of defunct objects orbiting the Earth. Examples of debris include non-operational satellites, rocket bodies, and fragments generated from explosions, collisions, or faulty payload assembly.

Loading next visibility...
Identifier
12538, 1976-077DT
Orbit
SSO
Country
Flag of USUS
Related business
Manufacturer
Unknown
Mission
Spacecraft
Bus & Motor
Unknown
Mass
Unknown
Launch date (UTC)
1976-07-29 (49 years ago)
Launch vehicle
Unknown
Launch site
Air Force Western Test Range (AFWTR)
Object type
Payload
Rocket body
Debris
Shape & HBR
Unknown shape, 0.2 m
Radar Cross Section
Small (<0.1 m²)

Expand to show TLE details & history
Last TLE update: 1 day ago

TLE from 1 day ago
0 DELTA 1 DEB
1 12538U 76077DT  25288.24978422  .00000075  00000-0  13085-2 0  9990
2 12538 102.7828  22.8559 0197793 315.7103  66.1375 12.05732909  2914
Epoch: 2025-10-15T05:59Z
TLE epoch observation values (Epoch: 2025-10-15T05:59:41.356Z)
Latitude
23.33351°
Longitude
-96.68202°
Altitude
1,596.097 km
Speed
7.1 km/s
True Right ascension
01h 09m 04s
True Declination
23° 13' 19"
Sunlit
Object was in full shadow at epoch
Visualization orbit readout
Latitude
Unknown
Longitude
Unknown
Altitude
Unknown
Speed
Unknown
Apparent Right ascension
Unknown
Apparent Declination
Unknown
Sunlit
N/A
Visualization observer readout
Local Sidereal Time
09:11:28
Azimuth
Unknown
Elevation
Unknown
Doppler factor
Unknown
Orbital elements
Apogee altitude
1,811.81 km
Perigee altitude
1,494.111 km
Semi-major axis
8,031.097 km
Eccentricity
0.01978
Inclination
102.7828°
RAAN
22.8559°
Arg. of periapsis
315.7103°
True anomaly
68.23076°
Mean anomaly
66.1375°
Eccentric anomaly
67.18208°
Mean motion
3.01565 °/min
Orbital period
119.38 mins
BSTAR
0.0013085
Loading maneuver chart data...
Computing Atmospheric mass density...
Loading historical data...
Loading historical data...
Loading historical data...
Loading historical data...
Loading historical data...
Loading historical data...
Loading historical data...

Documentation

Showing up to 5 results
|